Location: Ergnies
(50.0854°N, 2.0375°E)
Time: 16:02:42
(UTC+00:00)

NOAA 12 - Pass Details

Date: 14 January 2026
Orbit: 793 x 813 km, 98.6° (Epoch: 18 February)

Event Time Altitude Azimuth Distance (km) Brightness Sun altitude
Rises 05:04:13 0° 15° (NNE) 3,308 7.4 -25.1°
Reaches altitude 10° 05:06:33 10° 17° (NNE) 2,373 6.7 -24.8°
Maximum altitude 05:11:48 80° 104° (ESE) 811 4.1 -23.9°
Drops below altitude 10° 05:17:01 10° 192° (SSW) 2,357 6.5 -23.1°
Sets 05:19:20 0° 194° (SSW) 3,284 7.2 -22.7°
